Location: El Bakhil
(32.7726°N, 5.5387°W)
Time: 10:57:01
(UTC+00:00)

ATLAS CENTAUR R/B - Pass Details

Date: 03 March 2021
Orbit: 475 x 670 km, 64.7° (Epoch: 30 March)

Event Time Altitude Azimuth Distance (km) Brightness Sun altitude
Rises 19:53:16 0° 245° (WSW) 2,530 5.7 -20.2°
Reaches altitude 10° 19:56:03 10° 267° (W) 1,642 4.9 -20.7°
Maximum altitude 19:58:21 16° 307° (NW) 1,315 4.0 -21.2°
Drops below altitude 10° 20:00:41 10° 347° (NNW) 1,644 4.0 -21.7°
Enters shadow 20:03:16 - 9° (N) 2,458 4.6 -22.2°
